Tracking 27107 objects as of 20-Mar-2023
HD Live streaming from Space Station
objects crossing your sky now

STORK-5 (MARTA)

Track STORK-5 (MARTA) now!
10-day predictions


NORAD ID: 48872
Int'l Code: 2021-058B
Perigee: 438.2 km
Apogee: 476.0 km
Inclination: 60.7 °
Period: 93.6 minutes
Semi major axis: 6828 km
RCS: Unknown
Launch date: June 30, 2021
Source: POLAND (POL)
Launch site: Pegasus launched from Western Range Air Space (WRAS)
Your satellite tracking list
Your tracking list is empty




NASA's NSSDC Master Catalog

Two Line Element Set (TLE):
1 48872U 21058B   23079.47934204  .00068089  00000-0  17351-2 0  9999
2 48872  60.6938  22.7204 0027638  51.6873  62.8567 15.38695930 95755
Source of the keplerian elements: AFSPC